Location: Ocean City
(38.3360°N, 75.0850°W)
Time: 15:38:27
(UTC-05:00)

Transit 4A - Visible Passes

Search period start: 15 November 2019 00:00
Search period end: 25 November 2019 00:00
Orbit: 868 x 976 km, 66.8° (Epoch: 14 November)

Date Brightness Start Highest point End Pass type
(mag) Time Alt. Az. Time Alt. Az. Time Alt. Az.
17 Nov 10.3 05:15:53 10° NNE 05:17:14 11° NE 05:18:35 10° NE visible
18 Nov 10.2 05:23:42 10° N 05:27:04 15° NE 05:30:22 10° ENE visible
19 Nov 9.9 05:32:20 10° N 05:36:46 21° NE 05:41:08 10° E visible
20 Nov 9.4 05:41:14 10° N 05:46:23 30° NE 05:51:27 10° ESE visible
21 Nov 8.8 05:50:17 10° NNW 05:55:55 44° NE 06:01:25 10° SE visible
22 Nov 10.3 04:15:30 10° NNE 04:17:47 12° NE 04:20:03 10° ENE visible
22 Nov 8.2 05:59:28 10° NNW 06:05:20 66° ENE 06:11:05 10° SE visible
23 Nov 10.1 04:23:47 10° N 04:27:34 17° NE 04:31:19 10° E visible
23 Nov 7.8 06:08:47 10° NNW 06:14:40 83° WSW 06:20:27 10° SSE visible
24 Nov 9.7 04:32:39 10° N 04:37:14 24° NE 04:41:53 10° ESE visible
24 Nov 8.0 06:18:14 10° NW 06:23:55 54° WSW 06:29:32 10° S visible
